Time,TemperatureF,DewpointF,PressureIn,WindDirection,WindDirectionDegrees,WindSpeedMPH,WindSpeedGustMPH,Humidity,HourlyPrecipIn,Conditions,Clouds,dailyrainin,SoftwareType,DateUTC
2013-08-26 00:00:00,77.8,68.4,30.08,SW,218,5.0,5.0,73,0.00,,,0.00,Wunderground v.1.15,2013-08-26 05:00:00,
2013-08-26 00:06:00,77.8,68.4,30.08,SSW,199,4.0,10.0,73,0.00,,,0.00,Wunderground v.1.15,2013-08-26 05:06:00,
2013-08-26 00:12:00,77.6,68.7,30.08,South,188,5.0,7.0,74,0.00,,,0.00,Wunderground v.1.15,2013-08-26 05:12:00,
2013-08-26 00:18:00,77.4,68.5,30.07,SW,223,6.0,8.0,74,0.00,,,0.00,Wunderground v.1.15,2013-08-26 05:18:00,
2013-08-26 00:24:00,77.1,68.2,30.07,SSW,204,6.0,9.0,74,0.00,,,0.00,Wunderground v.1.15,2013-08-26 05:24:00,
2013-08-26 00:30:00,77.0,68.5,30.07,South,188,5.0,9.0,75,0.00,,,0.00,Wunderground v.1.15,2013-08-26 05:30:00,
2013-08-26 00:36:00,76.7,68.2,30.07,SW,227,5.0,9.0,75,0.00,,,0.00,Wunderground v.1.15,2013-08-26 05:36:00,
2013-08-26 00:42:00,76.6,68.5,30.07,South,181,4.0,5.0,76,0.00,,,0.00,Wunderground v.1.15,2013-08-26 05:42:00,
2013-08-26 00:48:00,76.4,68.3,30.07,SW,214,5.0,5.0,76,0.00,,,0.00,Wunderground v.1.15,2013-08-26 05:48:00,
2013-08-26 00:54:00,76.2,68.1,30.07,South,188,5.0,10.0,76,0.00,,,0.00,Wunderground v.1.15,2013-08-26 05:54:00,
2013-08-26 01:02:00,76.2,68.1,30.06,SSW,213,6.0,13.0,76,0.00,,,0.00,Wunderground v.1.15,2013-08-26 06:02:00,
2013-08-26 01:08:00,76.1,68.0,30.06,South,181,7.0,13.0,76,0.00,,,0.00,Wunderground v.1.15,2013-08-26 06:08:00,
2013-08-26 01:14:00,76.1,68.0,30.06,SSW,192,5.0,7.0,76,0.00,,,0.00,Wunderground v.1.15,2013-08-26 06:14:00,
2013-08-26 01:20:00,76.1,68.0,30.06,SSW,213,5.0,5.0,76,0.00,,,0.00,Wunderground v.1.15,2013-08-26 06:20:00,
2013-08-26 01:26:00,76.1,67.6,30.06,WSW,239,7.0,13.0,75,0.00,,,0.00,Wunderground v.1.15,2013-08-26 06:26:00,
2013-08-26 01:32:00,76.1,67.6,30.06,SSW,204,6.0,8.0,75,0.00,,,0.00,Wunderground v.1.15,2013-08-26 06:32:00,
2013-08-26 01:38:00,76.1,67.6,30.06,SSW,205,5.0,8.0,75,0.00,,,0.00,Wunderground v.1.15,2013-08-26 06:38:00,
2013-08-26 01:44:00,76.1,67.6,30.05,SW,221,6.0,13.0,75,0.00,,,0.00,Wunderground v.1.15,2013-08-26 06:44:00,
2013-08-26 01:50:00,76.0,67.5,30.05,SSW,194,6.0,9.0,75,0.00,,,0.00,Wunderground v.1.15,2013-08-26 06:50:00,
2013-08-26 01:56:00,76.0,67.5,30.05,WSW,240,5.0,9.0,75,0.00,,,0.00,Wunderground v.1.15,2013-08-26 06:56:00,
2013-08-26 02:02:00,75.9,67.4,30.06,SW,228,4.0,6.0,75,0.00,,,0.00,Wunderground v.1.15,2013-08-26 07:02:00,
2013-08-26 02:08:00,75.9,67.4,30.06,SSW,192,5.0,6.0,75,0.00,,,0.00,Wunderground v.1.15,2013-08-26 07:08:00,
2013-08-26 02:14:00,75.8,67.3,30.06,SW,219,6.0,6.0,75,0.00,,,0.00,Wunderground v.1.15,2013-08-26 07:14:00,
2013-08-26 02:20:00,75.7,67.2,30.06,SSW,194,7.0,7.0,75,0.00,,,0.00,Wunderground v.1.15,2013-08-26 07:20:00,
2013-08-26 02:26:00,75.7,67.2,30.06,South,186,6.0,7.0,75,0.00,,,0.00,Wunderground v.1.15,2013-08-26 07:26:00,
2013-08-26 02:32:00,75.6,67.1,30.06,SSW,204,7.0,8.0,75,0.00,,,0.00,Wunderground v.1.15,2013-08-26 07:32:00,
2013-08-26 02:38:00,75.5,67.0,30.06,SSW,209,8.0,8.0,75,0.00,,,0.00,Wunderground v.1.15,2013-08-26 07:38:00,
2013-08-26 02:44:00,75.5,67.0,30.06,SSW,204,7.0,8.0,75,0.00,,,0.00,Wunderground v.1.15,2013-08-26 07:44:00,
2013-08-26 02:50:00,75.3,66.8,30.06,SSW,207,8.0,8.0,75,0.00,,,0.00,Wunderground v.1.15,2013-08-26 07:50:00,
2013-08-26 02:56:00,75.3,66.8,30.06,SSW,202,7.0,8.0,75,0.00,,,0.00,Wunderground v.1.15,2013-08-26 07:56:00,
2013-08-26 03:02:00,75.2,66.7,30.06,SW,217,6.0,10.0,75,0.00,,,0.00,Wunderground v.1.15,2013-08-26 08:02:00,
2013-08-26 03:08:00,75.2,66.7,30.06,SW,220,6.0,10.0,75,0.00,,,0.00,Wunderground v.1.15,2013-08-26 08:08:00,
2013-08-26 03:14:00,75.1,66.6,30.06,SSW,199,6.0,6.0,75,0.00,,,0.00,Wunderground v.1.15,2013-08-26 08:14:00,
2013-08-26 03:20:00,75.1,66.6,30.06,SSW,200,5.0,12.0,75,0.00,,,0.00,Wunderground v.1.15,2013-08-26 08:20:00,
2013-08-26 03:26:00,75.0,66.5,30.06,South,177,6.0,12.0,75,0.00,,,0.00,Wunderground v.1.15,2013-08-26 08:26:00,
2013-08-26 03:32:00,75.1,66.6,30.06,South,183,5.0,5.0,75,0.00,,,0.00,Wunderground v.1.15,2013-08-26 08:32:00,
2013-08-26 03:38:00,74.9,66.4,30.06,SSW,192,5.0,9.0,75,0.00,,,0.00,Wunderground v.1.15,2013-08-26 08:38:00,
2013-08-26 03:44:00,74.8,66.3,30.06,South,184,5.0,6.0,75,0.00,,,0.00,Wunderground v.1.15,2013-08-26 08:44:00,
2013-08-26 03:50:00,74.7,66.6,30.06,South,184,3.0,3.0,76,0.00,,,0.00,Wunderground v.1.15,2013-08-26 08:50:00,
2013-08-26 03:56:00,74.6,66.5,30.06,SSW,206,3.0,4.0,76,0.00,,,0.00,Wunderground v.1.15,2013-08-26 08:56:00,
2013-08-26 04:02:00,74.6,66.5,30.05,SSW,199,3.0,4.0,76,0.00,,,0.00,Wunderground v.1.15,2013-08-26 09:02:00,
2013-08-26 04:08:00,74.5,66.4,30.05,South,190,3.0,4.0,76,0.00,,,0.00,Wunderground v.1.15,2013-08-26 09:08:00,
2013-08-26 04:14:00,74.4,66.3,30.05,SSW,203,4.0,5.0,76,0.00,,,0.00,Wunderground v.1.15,2013-08-26 09:14:00,
2013-08-26 04:20:00,74.4,66.3,30.05,SSW,194,5.0,5.0,76,0.00,,,0.00,Wunderground v.1.15,2013-08-26 09:20:00,
2013-08-26 04:26:00,74.4,66.3,30.05,SW,217,4.0,8.0,76,0.00,,,0.00,Wunderground v.1.15,2013-08-26 09:26:00,
2013-08-26 04:32:00,74.4,66.3,30.05,SSW,202,4.0,4.0,76,0.00,,,0.00,Wunderground v.1.15,2013-08-26 09:32:00,
2013-08-26 04:38:00,74.3,66.2,30.05,SW,215,4.0,4.0,76,0.00,,,0.00,Wunderground v.1.15,2013-08-26 09:38:00,
2013-08-26 04:44:00,74.3,66.2,30.06,South,184,3.0,4.0,76,0.00,,,0.00,Wunderground v.1.15,2013-08-26 09:44:00,
2013-08-26 04:50:00,74.3,66.2,30.06,SSW,208,4.0,4.0,76,0.00,,,0.00,Wunderground v.1.15,2013-08-26 09:50:00,
2013-08-26 04:56:00,74.2,66.1,30.06,South,176,4.0,6.0,76,0.00,,,0.00,Wunderground v.1.15,2013-08-26 09:56:00,
2013-08-26 05:02:00,74.2,66.1,30.06,South,178,2.0,3.0,76,0.00,,,0.00,Wunderground v.1.15,2013-08-26 10:02:00,
2013-08-26 05:08:00,74.1,66.0,30.06,South,179,1.0,3.0,76,0.00,,,0.00,Wunderground v.1.15,2013-08-26 10:08:00,
2013-08-26 05:14:00,74.0,66.0,30.06,SSW,208,1.0,1.0,76,0.00,,,0.00,Wunderground v.1.15,2013-08-26 10:14:00,
2013-08-26 05:20:00,73.9,65.9,30.06,SSW,198,1.0,4.0,76,0.00,,,0.00,Wunderground v.1.15,2013-08-26 10:20:00,
2013-08-26 05:26:00,73.8,65.8,30.06,South,187,3.0,4.0,76,0.00,,,0.00,Wunderground v.1.15,2013-08-26 10:26:00,
2013-08-26 05:32:00,73.7,66.0,30.06,SSW,198,3.0,4.0,77,0.00,,,0.00,Wunderground v.1.15,2013-08-26 10:32:00,
2013-08-26 05:38:00,73.6,65.9,30.06,South,188,2.0,4.0,77,0.00,,,0.00,Wunderground v.1.15,2013-08-26 10:38:00,
2013-08-26 05:44:00,73.5,65.8,30.05,SSW,200,1.0,3.0,77,0.00,,,0.00,Wunderground v.1.15,2013-08-26 10:44:00,
2013-08-26 05:50:00,73.5,65.8,30.05,SW,236,2.0,2.0,77,0.00,,,0.00,Wunderground v.1.15,2013-08-26 10:50:00,
2013-08-26 05:56:00,73.5,65.8,30.05,SSW,193,1.0,2.0,77,0.00,,,0.00,Wunderground v.1.15,2013-08-26 10:56:00,
2013-08-26 06:02:00,73.5,65.8,30.05,South,189,2.0,2.0,77,0.00,,,0.00,Wunderground v.1.15,2013-08-26 11:02:00,
2013-08-26 06:08:00,73.5,65.8,30.05,SSW,198,2.0,3.0,77,0.00,,,0.00,Wunderground v.1.15,2013-08-26 11:08:00,
2013-08-26 06:14:00,73.4,65.7,30.05,South,185,1.0,3.0,77,0.00,,,0.00,Wunderground v.1.15,2013-08-26 11:14:00,
2013-08-26 06:20:00,73.3,66.0,30.05,SSW,206,2.0,2.0,78,0.00,,,0.00,Wunderground v.1.15,2013-08-26 11:20:00,
2013-08-26 06:26:00,73.2,65.9,30.05,South,189,1.0,2.0,78,0.00,,,0.00,Wunderground v.1.15,2013-08-26 11:26:00,
2013-08-26 06:32:00,73.1,65.8,30.06,South,185,0.0,2.0,78,0.00,,,0.00,Wunderground v.1.15,2013-08-26 11:32:00,
2013-08-26 06:38:00,73.1,65.8,30.06,WSW,243,1.0,2.0,78,0.00,,,0.00,Wunderground v.1.15,2013-08-26 11:38:00,
2013-08-26 06:44:00,73.2,66.3,30.07,SW,229,1.0,1.0,79,0.00,,,0.00,Wunderground v.1.15,2013-08-26 11:44:00,
2013-08-26 06:50:00,73.2,65.9,30.07,SW,229,0.0,0.0,78,0.00,,,0.00,Wunderground v.1.15,2013-08-26 11:50:00,
2013-08-26 06:56:00,73.2,66.3,30.07,SW,229,0.0,0.0,79,0.00,,,0.00,Wunderground v.1.15,2013-08-26 11:56:00,
2013-08-26 07:02:00,73.3,66.4,30.08,West,272,0.0,2.0,79,0.00,,,0.00,Wunderground v.1.15,2013-08-26 12:02:00,
2013-08-26 07:08:00,73.3,66.4,30.08,West,272,0.0,2.0,79,0.00,,,0.00,Wunderground v.1.15,2013-08-26 12:08:00,
2013-08-26 07:14:00,73.2,66.3,30.08,West,272,0.0,0.0,79,0.00,,,0.00,Wunderground v.1.15,2013-08-26 12:14:00,
2013-08-26 07:20:00,73.2,66.3,30.08,West,272,0.0,0.0,79,0.00,,,0.00,Wunderground v.1.15,2013-08-26 12:20:00,
2013-08-26 07:26:00,73.3,66.4,30.08,West,272,0.0,0.0,79,0.00,,,0.00,Wunderground v.1.15,2013-08-26 12:26:00,
2013-08-26 07:32:00,73.5,66.6,30.08,West,266,0.0,0.0,79,0.00,,,0.00,Wunderground v.1.15,2013-08-26 12:32:00,
2013-08-26 07:38:00,73.7,66.8,30.08,SE,133,0.0,1.0,79,0.00,,,0.00,Wunderground v.1.15,2013-08-26 12:38:00,
2013-08-26 07:44:00,73.8,66.9,30.08,SE,138,1.0,2.0,79,0.00,,,0.00,Wunderground v.1.15,2013-08-26 12:44:00,
2013-08-26 07:50:00,73.8,66.9,30.08,SSE,166,1.0,1.0,79,0.00,,,0.00,Wunderground v.1.15,2013-08-26 12:50:00,
2013-08-26 07:56:00,73.9,66.6,30.08,South,182,0.0,3.0,78,0.00,,,0.00,Wunderground v.1.15,2013-08-26 12:56:00,
2013-08-26 08:02:00,73.8,66.9,30.08,South,185,2.0,3.0,79,0.00,,,0.00,Wunderground v.1.15,2013-08-26 13:02:00,
2013-08-26 08:08:00,73.7,66.8,30.08,SSW,213,3.0,6.0,79,0.00,,,0.00,Wunderground v.1.15,2013-08-26 13:08:00,
2013-08-26 08:14:00,73.7,67.1,30.08,SSW,193,4.0,5.0,80,0.00,,,0.00,Wunderground v.1.15,2013-08-26 13:14:00,
2013-08-26 08:20:00,73.9,67.3,30.08,South,189,3.0,3.0,80,0.00,,,0.00,Wunderground v.1.15,2013-08-26 13:20:00,
2013-08-26 08:26:00,74.4,67.5,30.08,SSE,154,2.0,3.0,79,0.00,,,0.00,Wunderground v.1.15,2013-08-26 13:26:00,
2013-08-26 08:32:00,75.0,67.7,30.08,West,265,1.0,2.0,78,0.00,,,0.00,Wunderground v.1.15,2013-08-26 13:32:00,
2013-08-26 08:38:00,76.0,68.6,30.08,SW,221,1.0,2.0,78,0.00,,,0.00,Wunderground v.1.15,2013-08-26 13:38:00,
2013-08-26 08:44:00,77.3,69.1,30.07,SW,235,0.0,4.0,76,0.00,,,0.00,Wunderground v.1.15,2013-08-26 13:44:00,
2013-08-26 08:50:00,77.8,69.2,30.07,West,267,1.0,1.0,75,0.00,,,0.00,Wunderground v.1.15,2013-08-26 13:50:00,
2013-08-26 08:56:00,78.4,69.4,30.07,WSW,254,2.0,7.0,74,0.00,,,0.00,Wunderground v.1.15,2013-08-26 13:56:00,
2013-08-26 09:02:00,78.5,69.5,30.08,WSW,244,4.0,4.0,74,0.00,,,0.00,Wunderground v.1.15,2013-08-26 14:02:00,
2013-08-26 09:08:00,78.7,69.7,30.08,WSW,254,5.0,6.0,74,0.00,,,0.00,Wunderground v.1.15,2013-08-26 14:08:00,
2013-08-26 09:14:00,78.8,69.8,30.08,WSW,239,4.0,4.0,74,0.00,,,0.00,Wunderground v.1.15,2013-08-26 14:14:00,
2013-08-26 09:20:00,79.2,69.8,30.08,SSW,206,3.0,3.0,73,0.00,,,0.00,Wunderground v.1.15,2013-08-26 14:20:00,
2013-08-26 09:26:00,79.6,70.2,30.08,SSW,211,3.0,6.0,73,0.00,,,0.00,Wunderground v.1.15,2013-08-26 14:26:00,
2013-08-26 09:32:00,79.6,70.2,30.07,West,270,5.0,10.0,73,0.00,,,0.00,Wunderground v.1.15,2013-08-26 14:32:00,
2013-08-26 09:38:00,79.7,70.3,30.07,WSW,258,4.0,10.0,73,0.00,,,0.00,Wunderground v.1.15,2013-08-26 14:38:00,
2013-08-26 09:44:00,80.0,70.6,30.07,WNW,291,2.0,3.0,73,0.00,,,0.00,Wunderground v.1.15,2013-08-26 14:44:00,
2013-08-26 09:50:00,80.1,70.7,30.07,West,269,2.0,3.0,73,0.00,,,0.00,Wunderground v.1.15,2013-08-26 14:50:00,
2013-08-26 09:56:00,80.3,70.9,30.07,WSW,239,3.0,5.0,73,0.00,,,0.00,Wunderground v.1.15,2013-08-26 14:56:00,
2013-08-26 10:02:00,80.5,71.0,30.07,West,275,2.0,3.0,73,0.00,,,0.00,Wunderground v.1.15,2013-08-26 15:02:00,
2013-08-26 10:08:00,80.8,71.3,30.07,West,280,2.0,5.0,73,0.00,,,0.00,Wunderground v.1.15,2013-08-26 15:08:00,
2013-08-26 10:14:00,81.2,71.3,30.07,SW,228,3.0,3.0,72,0.00,,,0.00,Wunderground v.1.15,2013-08-26 15:14:00,
2013-08-26 10:20:00,81.6,71.7,30.07,WSW,254,3.0,3.0,72,0.00,,,0.00,Wunderground v.1.15,2013-08-26 15:20:00,
2013-08-26 10:26:00,82.3,72.0,30.07,SSW,210,2.0,3.0,71,0.00,,,0.00,Wunderground v.1.15,2013-08-26 15:26:00,
2013-08-26 10:32:00,82.7,72.3,30.06,West,262,3.0,8.0,71,0.00,,,0.00,Wunderground v.1.15,2013-08-26 15:32:00,
2013-08-26 10:38:00,83.0,72.2,30.06,SSE,167,3.0,8.0,70,0.00,,,0.00,Wunderground v.1.15,2013-08-26 15:38:00,
2013-08-26 10:44:00,83.0,72.2,30.06,SW,227,3.0,8.0,70,0.00,,,0.00,Wunderground v.1.15,2013-08-26 15:44:00,
2013-08-26 10:50:00,83.1,72.7,30.06,South,180,4.0,6.0,71,0.00,,,0.00,Wunderground v.1.15,2013-08-26 15:50:00,
2013-08-26 10:56:00,83.1,72.7,30.06,SSW,200,4.0,9.0,71,0.00,,,0.00,Wunderground v.1.15,2013-08-26 15:56:00,
2013-08-26 11:02:00,83.2,72.8,30.06,WSW,248,5.0,6.0,71,0.00,,,0.00,Wunderground v.1.15,2013-08-26 16:02:00,
2013-08-26 11:08:00,83.6,72.8,30.06,South,190,5.0,8.0,70,0.00,,,0.00,Wunderground v.1.15,2013-08-26 16:08:00,
2013-08-26 11:14:00,83.8,73.4,30.05,WSW,253,6.0,8.0,71,0.00,,,0.00,Wunderground v.1.15,2013-08-26 16:14:00,
2013-08-26 11:20:00,84.1,73.3,30.05,South,185,6.0,6.0,70,0.00,,,0.00,Wunderground v.1.15,2013-08-26 16:20:00,
2013-08-26 11:26:00,84.4,73.5,30.05,WSW,243,7.0,9.0,70,0.00,,,0.00,Wunderground v.1.15,2013-08-26 16:26:00,
2013-08-26 11:32:00,84.7,73.8,30.05,SW,229,6.0,8.0,70,0.00,,,0.00,Wunderground v.1.15,2013-08-26 16:32:00,
2013-08-26 11:38:00,85.4,74.1,30.05,WSW,257,5.0,8.0,69,0.00,,,0.00,Wunderground v.1.15,2013-08-26 16:38:00,
2013-08-26 11:44:00,85.9,74.5,30.05,SSW,198,4.0,9.0,69,0.00,,,0.00,Wunderground v.1.15,2013-08-26 16:44:00,
2013-08-26 11:50:00,86.2,74.4,30.04,South,190,5.0,5.0,68,0.00,,,0.00,Wunderground v.1.15,2013-08-26 16:50:00,
2013-08-26 11:56:00,86.5,74.7,30.04,SSE,150,5.0,8.0,68,0.00,,,0.00,Wunderground v.1.15,2013-08-26 16:56:00,
2013-08-26 12:02:00,86.8,74.5,30.03,SW,217,4.0,4.0,67,0.00,,,0.00,Wunderground v.1.15,2013-08-26 17:02:00,
2013-08-26 12:08:00,87.2,74.9,30.03,South,185,4.0,7.0,67,0.00,,,0.00,Wunderground v.1.15,2013-08-26 17:08:00,
2013-08-26 12:14:00,87.8,74.6,30.03,South,174,4.0,10.0,65,0.00,,,0.00,Wunderground v.1.15,2013-08-26 17:14:00,
2013-08-26 12:20:00,87.5,74.7,30.03,SSW,201,6.0,9.0,66,0.00,,,0.00,Wunderground v.1.15,2013-08-26 17:20:00,
2013-08-26 12:26:00,87.7,74.9,30.03,South,181,6.0,9.0,66,0.00,,,0.00,Wunderground v.1.15,2013-08-26 17:26:00,
2013-08-26 12:32:00,88.0,75.2,30.02,SSW,202,5.0,8.0,66,0.00,,,0.00,Wunderground v.1.15,2013-08-26 17:32:00,
2013-08-26 12:38:00,88.0,75.7,30.02,SE,136,6.0,8.0,67,0.00,,,0.00,Wunderground v.1.15,2013-08-26 17:38:00,
2013-08-26 12:44:00,88.1,75.8,30.02,SSE,148,6.0,7.0,67,0.00,,,0.00,Wunderground v.1.15,2013-08-26 17:44:00,
2013-08-26 12:50:00,88.5,76.1,30.02,South,177,7.0,7.0,67,0.00,,,0.00,Wunderground v.1.15,2013-08-26 17:50:00,
2013-08-26 12:56:00,88.0,75.7,30.02,South,182,8.0,12.0,67,0.00,,,0.00,Wunderground v.1.15,2013-08-26 17:56:00,
2013-08-26 13:02:00,88.3,75.9,30.02,South,188,7.0,8.0,67,0.00,,,0.00,Wunderground v.1.15,2013-08-26 18:02:00,
2013-08-26 13:08:00,88.5,75.7,30.02,West,266,6.0,12.0,66,0.00,,,0.00,Wunderground v.1.15,2013-08-26 18:08:00,
2013-08-26 13:14:00,88.3,75.9,30.01,SW,229,8.0,12.0,67,0.00,,,0.00,Wunderground v.1.15,2013-08-26 18:14:00,
2013-08-26 13:20:00,88.2,75.9,30.01,SW,216,9.0,9.0,67,0.00,,,0.00,Wunderground v.1.15,2013-08-26 18:20:00,
2013-08-26 13:26:00,88.0,76.1,30.01,SW,216,8.0,9.0,68,0.00,,,0.00,Wunderground v.1.15,2013-08-26 18:26:00,
2013-08-26 13:32:00,88.3,75.9,30.00,SSW,213,8.0,9.0,67,0.00,,,0.00,Wunderground v.1.15,2013-08-26 18:32:00,
2013-08-26 13:38:00,88.2,75.9,30.00,SW,230,9.0,14.0,67,0.00,,,0.00,Wunderground v.1.15,2013-08-26 18:38:00,
2013-08-26 13:44:00,88.6,76.2,30.00,WSW,254,8.0,8.0,67,0.00,,,0.00,Wunderground v.1.15,2013-08-26 18:44:00,
2013-08-26 13:50:00,88.1,75.8,30.00,SSW,200,9.0,13.0,67,0.00,,,0.00,Wunderground v.1.15,2013-08-26 18:50:00,
2013-08-26 13:56:00,87.9,75.6,30.00,SSW,200,11.0,13.0,67,0.00,,,0.00,Wunderground v.1.15,2013-08-26 18:56:00,
2013-08-26 14:02:00,88.8,76.0,30.00,SSW,209,9.0,11.0,66,0.00,,,0.00,Wunderground v.1.15,2013-08-26 19:02:00,
2013-08-26 14:08:00,88.6,75.8,30.00,SW,217,8.0,11.0,66,0.00,,,0.00,Wunderground v.1.15,2013-08-26 19:08:00,
2013-08-26 14:14:00,88.6,75.8,30.00,SSW,201,9.0,12.0,66,0.00,,,0.00,Wunderground v.1.15,2013-08-26 19:14:00,
2013-08-26 14:20:00,88.7,75.9,30.00,South,190,9.0,9.0,66,0.00,,,0.00,Wunderground v.1.15,2013-08-26 19:20:00,
2013-08-26 14:26:00,88.7,75.9,30.00,WSW,245,9.0,14.0,66,0.00,,,0.00,Wunderground v.1.15,2013-08-26 19:26:00,
2013-08-26 14:32:00,89.3,76.0,29.99,SSW,211,7.0,12.0,65,0.00,,,0.00,Wunderground v.1.15,2013-08-26 19:32:00,
2013-08-26 14:38:00,89.1,76.3,29.99,SSE,168,7.0,13.0,66,0.00,,,0.00,Wunderground v.1.15,2013-08-26 19:38:00,
2013-08-26 14:44:00,89.5,76.2,29.98,SSE,166,7.0,12.0,65,0.00,,,0.00,Wunderground v.1.15,2013-08-26 19:44:00,
2013-08-26 14:50:00,89.9,76.6,29.98,SSW,213,6.0,7.0,65,0.00,,,0.00,Wunderground v.1.15,2013-08-26 19:50:00,
2013-08-26 14:56:00,90.0,76.6,29.98,South,187,7.0,13.0,65,0.00,,,0.00,Wunderground v.1.15,2013-08-26 19:56:00,
2013-08-26 15:02:00,89.8,76.5,29.98,South,174,8.0,8.0,65,0.00,,,0.00,Wunderground v.1.15,2013-08-26 20:02:00,
2013-08-26 15:08:00,90.0,76.6,29.98,South,185,8.0,9.0,65,0.00,,,0.00,Wunderground v.1.15,2013-08-26 20:08:00,
2013-08-26 15:14:00,90.0,76.2,29.98,SSE,168,8.0,9.0,64,0.00,,,0.00,Wunderground v.1.15,2013-08-26 20:14:00,
2013-08-26 15:20:00,90.0,76.6,29.98,SSW,209,8.0,10.0,65,0.00,,,0.00,Wunderground v.1.15,2013-08-26 20:20:00,
2013-08-26 15:26:00,90.3,76.9,29.98,West,269,7.0,10.0,65,0.00,,,0.00,Wunderground v.1.15,2013-08-26 20:26:00,
2013-08-26 15:32:00,90.7,76.4,29.97,South,190,6.0,7.0,63,0.00,,,0.00,Wunderground v.1.15,2013-08-26 20:32:00,
2013-08-26 15:38:00,91.0,76.7,29.97,SSW,206,6.0,10.0,63,0.00,,,0.00,Wunderground v.1.15,2013-08-26 20:38:00,
2013-08-26 15:44:00,91.1,76.7,29.97,SW,225,6.0,7.0,63,0.00,,,0.00,Wunderground v.1.15,2013-08-26 20:44:00,
2013-08-26 15:50:00,91.5,75.7,29.97,South,188,5.0,9.0,60,0.00,,,0.00,Wunderground v.1.15,2013-08-26 20:50:00,
2013-08-26 15:56:00,91.5,76.1,29.97,South,189,7.0,9.0,61,0.00,,,0.00,Wunderground v.1.15,2013-08-26 20:56:00,
2013-08-26 16:02:00,91.7,75.8,29.96,SW,219,6.0,7.0,60,0.00,,,0.00,Wunderground v.1.15,2013-08-26 21:02:00,
2013-08-26 16:08:00,91.8,75.9,29.96,SW,236,7.0,11.0,60,0.00,,,0.00,Wunderground v.1.15,2013-08-26 21:08:00,
2013-08-26 16:14:00,91.8,75.9,29.96,South,186,7.0,11.0,60,0.00,,,0.00,Wunderground v.1.15,2013-08-26 21:14:00,
2013-08-26 16:20:00,92.2,76.3,29.96,West,279,5.0,5.0,60,0.00,,,0.00,Wunderground v.1.15,2013-08-26 21:20:00,
2013-08-26 16:26:00,91.9,75.5,29.96,SSW,200,7.0,12.0,59,0.00,,,0.00,Wunderground v.1.15,2013-08-26 21:26:00,
2013-08-26 16:32:00,91.5,75.7,29.95,South,189,9.0,10.0,60,0.00,,,0.00,Wunderground v.1.15,2013-08-26 21:32:00,
2013-08-26 16:38:00,91.8,75.9,29.95,SW,216,7.0,13.0,60,0.00,,,0.00,Wunderground v.1.15,2013-08-26 21:38:00,
2013-08-26 16:44:00,92.0,75.6,29.95,SW,222,6.0,7.0,59,0.00,,,0.00,Wunderground v.1.15,2013-08-26 21:44:00,
2013-08-26 16:50:00,92.0,76.1,29.95,South,179,6.0,8.0,60,0.00,,,0.00,Wunderground v.1.15,2013-08-26 21:50:00,
2013-08-26 16:56:00,91.7,75.3,29.95,SSW,198,8.0,9.0,59,0.00,,,0.00,Wunderground v.1.15,2013-08-26 21:56:00,
2013-08-26 17:02:00,91.8,75.4,29.95,SW,215,8.0,9.0,59,0.00,,,0.00,Wunderground v.1.15,2013-08-26 22:02:00,
2013-08-26 17:08:00,91.9,75.0,29.95,SSW,198,8.0,9.0,58,0.00,,,0.00,Wunderground v.1.15,2013-08-26 22:08:00,
2013-08-26 17:14:00,92.0,75.1,29.95,WSW,244,6.0,7.0,58,0.00,,,0.00,Wunderground v.1.15,2013-08-26 22:14:00,
2013-08-26 17:20:00,92.3,74.3,29.95,West,276,5.0,5.0,56,0.00,,,0.00,Wunderground v.1.15,2013-08-26 22:20:00,
2013-08-26 17:26:00,92.2,74.8,29.95,SSW,198,6.0,6.0,57,0.00,,,0.00,Wunderground v.1.15,2013-08-26 22:26:00,
2013-08-26 17:32:00,92.3,74.9,29.94,SW,232,5.0,7.0,57,0.00,,,0.00,Wunderground v.1.15,2013-08-26 22:32:00,
2013-08-26 17:38:00,92.1,74.7,29.94,SSW,209,5.0,7.0,57,0.00,,,0.00,Wunderground v.1.15,2013-08-26 22:38:00,
2013-08-26 17:44:00,91.8,74.9,29.94,SSW,212,6.0,9.0,58,0.00,,,0.00,Wunderground v.1.15,2013-08-26 22:44:00,
2013-08-26 17:50:00,91.7,74.8,29.94,South,191,5.0,5.0,58,0.00,,,0.00,Wunderground v.1.15,2013-08-26 22:50:00,
2013-08-26 17:56:00,91.3,75.0,29.94,South,191,7.0,14.0,59,0.00,,,0.00,Wunderground v.1.15,2013-08-26 22:56:00,
2013-08-26 18:02:00,91.3,75.0,29.94,SSW,204,6.0,6.0,59,0.00,,,0.00,Wunderground v.1.15,2013-08-26 23:02:00,
2013-08-26 18:08:00,91.1,74.8,29.94,SW,222,5.0,6.0,59,0.00,,,0.00,Wunderground v.1.15,2013-08-26 23:08:00,
2013-08-26 18:14:00,91.2,74.9,29.93,SW,232,5.0,6.0,59,0.00,,,0.00,Wunderground v.1.15,2013-08-26 23:14:00,
2013-08-26 18:20:00,91.2,74.4,29.93,SSW,204,4.0,5.0,58,0.00,,,0.00,Wunderground v.1.15,2013-08-26 23:20:00,
2013-08-26 18:26:00,90.8,74.0,29.93,South,177,6.0,9.0,58,0.00,,,0.00,Wunderground v.1.15,2013-08-26 23:26:00,
2013-08-26 18:32:00,90.5,73.7,29.93,SSW,202,7.0,7.0,58,0.00,,,0.00,Wunderground v.1.15,2013-08-26 23:32:00,
2013-08-26 18:38:00,90.2,73.9,29.93,South,182,5.0,7.0,59,0.00,,,0.00,Wunderground v.1.15,2013-08-26 23:38:00,
2013-08-26 18:44:00,90.0,73.7,29.93,South,171,5.0,8.0,59,0.00,,,0.00,Wunderground v.1.15,2013-08-26 23:44:00,
2013-08-26 18:50:00,89.6,73.9,29.92,SSW,211,6.0,6.0,60,0.00,,,0.00,Wunderground v.1.15,2013-08-26 23:50:00,
2013-08-26 18:56:00,89.4,73.7,29.92,SSW,204,5.0,7.0,60,0.00,,,0.00,Wunderground v.1.15,2013-08-26 23:56:00,
2013-08-26 19:02:00,89.2,74.0,29.92,SSW,200,5.0,6.0,61,0.00,,,0.00,Wunderground v.1.15,2013-08-27 00:02:00,
2013-08-26 19:08:00,88.9,73.7,29.92,SSW,207,5.0,9.0,61,0.00,,,0.00,Wunderground v.1.15,2013-08-27 00:08:00,
2013-08-26 19:14:00,88.8,74.1,29.92,WSW,244,5.0,6.0,62,0.00,,,0.00,Wunderground v.1.15,2013-08-27 00:14:00,
2013-08-26 19:20:00,88.5,73.3,29.92,South,186,5.0,6.0,61,0.00,,,0.00,Wunderground v.1.15,2013-08-27 00:20:00,
2013-08-26 19:26:00,88.3,73.6,29.92,SW,223,4.0,6.0,62,0.00,,,0.00,Wunderground v.1.15,2013-08-27 00:26:00,
2013-08-26 19:32:00,88.2,73.5,29.91,SSE,155,3.0,3.0,62,0.00,,,0.00,Wunderground v.1.15,2013-08-27 00:32:00,
2013-08-26 19:38:00,88.0,73.3,29.91,South,174,3.0,4.0,62,0.00,,,0.00,Wunderground v.1.15,2013-08-27 00:38:00,
2013-08-26 19:44:00,87.8,73.6,29.91,South,170,2.0,3.0,63,0.00,,,0.00,Wunderground v.1.15,2013-08-27 00:44:00,
2013-08-26 19:50:00,87.6,73.4,29.91,South,177,3.0,5.0,63,0.00,,,0.00,Wunderground v.1.15,2013-08-27 00:50:00,
2013-08-26 19:56:00,87.2,73.1,29.91,SW,222,3.0,5.0,63,0.00,,,0.00,Wunderground v.1.15,2013-08-27 00:56:00,
2013-08-26 20:02:00,87.0,73.3,29.91,SSW,192,3.0,3.0,64,0.00,,,0.00,Wunderground v.1.15,2013-08-27 01:02:00,
2013-08-26 20:08:00,86.7,73.1,29.91,South,179,2.0,3.0,64,0.00,,,0.00,Wunderground v.1.15,2013-08-27 01:08:00,
2013-08-26 20:14:00,86.5,73.3,29.92,South,179,1.0,2.0,65,0.00,,,0.00,Wunderground v.1.15,2013-08-27 01:14:00,
2013-08-26 20:20:00,86.3,73.1,29.92,South,179,1.0,2.0,65,0.00,,,0.00,Wunderground v.1.15,2013-08-27 01:20:00,
2013-08-26 20:26:00,86.0,72.9,29.92,South,191,2.0,3.0,65,0.00,,,0.00,Wunderground v.1.15,2013-08-27 01:26:00,
2013-08-26 20:32:00,85.8,73.1,29.92,SSW,196,2.0,2.0,66,0.00,,,0.00,Wunderground v.1.15,2013-08-27 01:32:00,
2013-08-26 20:38:00,85.6,72.9,29.92,SSW,209,1.0,2.0,66,0.00,,,0.00,Wunderground v.1.15,2013-08-27 01:38:00,
2013-08-26 20:44:00,85.4,72.7,29.92,South,187,1.0,3.0,66,0.00,,,0.00,Wunderground v.1.15,2013-08-27 01:44:00,
2013-08-26 20:50:00,85.1,72.9,29.92,South,188,1.0,1.0,67,0.00,,,0.00,Wunderground v.1.15,2013-08-27 01:50:00,
2013-08-26 20:56:00,84.9,73.2,29.92,South,188,0.0,1.0,68,0.00,,,0.00,Wunderground v.1.15,2013-08-27 01:56:00,
2013-08-26 21:02:00,84.6,72.9,29.93,South,182,1.0,5.0,68,0.00,,,0.00,Wunderground v.1.15,2013-08-27 02:02:00,
2013-08-26 21:08:00,84.4,72.7,29.93,South,177,4.0,5.0,68,0.00,,,0.00,Wunderground v.1.15,2013-08-27 02:08:00,
2013-08-26 21:14:00,84.3,73.0,29.93,South,173,3.0,4.0,69,0.00,,,0.00,Wunderground v.1.15,2013-08-27 02:14:00,
2013-08-26 21:20:00,84.1,72.8,29.93,South,169,2.0,3.0,69,0.00,,,0.00,Wunderground v.1.15,2013-08-27 02:20:00,
2013-08-26 21:26:00,84.0,72.7,29.93,SSE,167,2.0,3.0,69,0.00,,,0.00,Wunderground v.1.15,2013-08-27 02:26:00,
2013-08-26 21:32:00,83.9,72.6,29.93,South,171,2.0,4.0,69,0.00,,,0.00,Wunderground v.1.15,2013-08-27 02:32:00,
2013-08-26 21:38:00,83.6,72.8,29.93,South,183,3.0,4.0,70,0.00,,,0.00,Wunderground v.1.15,2013-08-27 02:38:00,
2013-08-26 21:44:00,83.4,72.6,29.93,SSW,192,4.0,5.0,70,0.00,,,0.00,Wunderground v.1.15,2013-08-27 02:44:00,
2013-08-26 21:50:00,83.1,72.3,29.93,SSW,192,4.0,4.0,70,0.00,,,0.00,Wunderground v.1.15,2013-08-27 02:50:00,
2013-08-26 21:56:00,83.0,72.6,29.93,South,186,4.0,4.0,71,0.00,,,0.00,Wunderground v.1.15,2013-08-27 02:56:00,
2013-08-26 22:02:00,82.8,72.4,29.93,South,171,3.0,3.0,71,0.00,,,0.00,Wunderground v.1.15,2013-08-27 03:02:00,
2013-08-26 22:08:00,82.7,72.3,29.93,South,171,1.0,3.0,71,0.00,,,0.00,Wunderground v.1.15,2013-08-27 03:08:00,
2013-08-26 22:14:00,82.7,72.7,29.92,South,171,2.0,4.0,72,0.00,,,0.00,Wunderground v.1.15,2013-08-27 03:14:00,
2013-08-26 22:20:00,82.7,72.7,29.92,South,171,1.0,1.0,72,0.00,,,0.00,Wunderground v.1.15,2013-08-27 03:20:00,
2013-08-26 22:26:00,82.6,72.7,29.92,South,171,0.0,2.0,72,0.00,,,0.00,Wunderground v.1.15,2013-08-27 03:26:00,
2013-08-26 22:32:00,82.5,72.6,29.93,South,171,1.0,2.0,72,0.00,,,0.00,Wunderground v.1.15,2013-08-27 03:32:00,
2013-08-26 22:38:00,82.3,72.4,29.93,South,171,2.0,4.0,72,0.00,,,0.00,Wunderground v.1.15,2013-08-27 03:38:00,
2013-08-26 22:44:00,82.2,72.3,29.92,South,171,3.0,4.0,72,0.00,,,0.00,Wunderground v.1.15,2013-08-27 03:44:00,
2013-08-26 22:50:00,82.1,72.6,29.92,South,171,2.0,2.0,73,0.00,,,0.00,Wunderground v.1.15,2013-08-27 03:50:00,
2013-08-26 22:56:00,81.9,72.4,29.92,South,171,1.0,2.0,73,0.00,,,0.00,Wunderground v.1.15,2013-08-27 03:56:00,
2013-08-26 23:02:00,81.5,72.4,29.92,South,171,1.0,1.0,74,0.00,,,0.00,Wunderground v.1.15,2013-08-27 04:02:00,
2013-08-26 23:04:00,81.4,72.3,29.92,South,171,1.0,1.0,74,0.00,,,0.00,Wunderground v.1.15,2013-08-27 04:04:00,
2013-08-26 23:08:00,81.1,72.4,29.92,South,171,1.0,2.0,75,0.00,,,0.00,Wunderground v.1.15,2013-08-27 04:08:00,
2013-08-26 23:12:00,80.9,72.2,29.92,South,171,2.0,3.0,75,0.00,,,0.00,Wunderground v.1.15,2013-08-27 04:12:00,
2013-08-26 23:18:00,80.7,72.0,29.92,South,171,2.0,4.0,75,0.00,,,0.00,Wunderground v.1.15,2013-08-27 04:18:00,
2013-08-26 23:24:00,80.4,72.1,29.92,South,171,2.0,4.0,76,0.00,,,0.00,Wunderground v.1.15,2013-08-27 04:24:00,
2013-08-26 23:30:00,80.4,72.1,29.92,South,171,3.0,3.0,76,0.00,,,0.00,Wunderground v.1.15,2013-08-27 04:30:00,
2013-08-26 23:36:00,80.4,72.1,29.92,South,171,2.0,3.0,76,0.00,,,0.00,Wunderground v.1.15,2013-08-27 04:36:00,
2013-08-26 23:42:00,80.4,71.7,29.92,South,171,2.0,4.0,75,0.00,,,0.00,Wunderground v.1.15,2013-08-27 04:42:00,
2013-08-26 23:48:00,80.4,71.7,29.93,South,171,1.0,4.0,75,0.00,,,0.00,Wunderground v.1.15,2013-08-27 04:48:00,
2013-08-26 23:54:00,80.3,71.6,29.93,South,171,0.0,1.0,75,0.00,,,0.00,Wunderground v.1.15,2013-08-27 04:54:00,